Theta_e
326 328 328 329 330 326 324 324 324 324 323 322 322 322 323 323 324 324 325 327 328 329 330 330 330 328 331 329 328 327 328 327 327 327 327 328 328 327 326 325 326 327 325
325 327 328 329 330 327 326 325 325 325 324 324 323 324 324 324 324 324 325 324 327 328 328 330 330 331 330 328 329 329 327 327 328 327 328 327 327 326 325 326 327 320 316
324 328 328 329 327 327 326 325 324 325 324 324 324 324 324 324 324 325 323 325 326 326 326 328 330 330 330 329 328 325 327 328 328 326 327 327 326 326 326 327 323 317 313
323 326 328 328 327 328 325 326 325 325 324 323 323 324 325 324 325 324 323 324 326 325 327 328 330 331 329 328 326 327 326 327 326 326 325 326 327 328 327 322 317 310 314
323 323 327 326 329 329 325 327 326 326 326 324 323 325 325 325 324 323 324 324 324 324 328 329 329 329 329 329 328 325 325 325 323 324 326 327 325 326 323 310 308 310 315
320 320 325 326 328 328 327 327 327 327 327 327 325 326 326 327 326 326 326 325 327 327 328 328 329 329 329 328 326 325 326 327 327 325 325 324 323 318 312 311 313 315 318
319 318 322 327 328 326 328 327 327 326 327 327 327 327 327 327 327 327 327 326 327 327 328 328 327 327 326 327 327 327 328 326 321 320 319 321 321 320 319 319 319 320 322
318 318 320 328 327 325 324 326 328 326 324 323 326 327 326 326 328 328 327 326 326 327 327 328 327 327 326 325 325 325 325 326 325 324 324 322 323 322 323 323 323 323 326
318 318 318 327 328 327 324 323 325 326 325 321 324 323 327 327 327 327 326 326 327 327 327 327 327 326 326 325 323 322 324 323 325 326 324 324 325 325 326 326 327 326 323
319 318 318 323 329 329 326 324 324 324 325 318 320 319 323 324 325 326 327 328 328 327 327 327 326 326 324 323 320 320 324 325 324 324 326 326 323 317 315 316 315 316 317
320 318 319 317 322 329 328 327 326 325 325 321 318 319 322 325 322 322 320 319 318 317 315 319 322 316 315 317 317 319 321 321 320 316 314 314 319 319 318 318 319 319 318
321 319 319 319 321 323 327 327 327 326 325 324 324 319 320 323 322 323 321 319 319 318 318 315 313 313 313 315 314 316 315 315 315 313 315 316 318 320 322 322 320 318 319
322 320 321 318 319 323 323 326 326 326 322 326 325 325 319 321 323 323 322 322 319 318 317 316 313 314 315 315 315 314 315 319 319 316 312 318 323 323 322 321 320 319 313
323 320 321 319 318 321 322 324 324 324 321 322 327 327 324 319 314 317 317 319 319 315 313 312 314 312 313 315 317 317 320 322 318 313 317 322 323 322 321 319 315 309 307
324 321 321 321 317 318 319 320 321 322 321 319 325 326 325 322 317 311 313 315 315 312 312 310 312 311 313 316 317 318 317 311 310 311 316 319 321 319 317 313 309 304 300
324 321 321 322 319 318 318 319 321 321 321 319 319 322 322 319 316 312 310 311 314 312 313 311 313 312 313 315 316 314 311 310 313 313 319 322 321 317 315 306 302 300 299
324 323 322 322 321 320 319 320 320 322 321 318 317 320 321 316 315 314 308 308 311 313 314 315 314 314 314 314 313 312 310 314 319 321 322 321 317 315 302 301 305 299 298
324 324 322 323 322 321 320 320 320 318 316 319 314 319 321 320 319 318 318 308 308 312 313 316 316 316 317 315 313 312 314 319 319 321 320 318 308 302 307 305 298 298 297
325 325 324 323 322 321 321 320 320 319 317 316 322 318 322 321 321 319 319 318 307 309 313 314 316 317 317 313 317 320 320 320 319 319 318 308 306 309 304 298 298 297 296
328 326 325 325 324 322 321 321 321 321 319 317 319 321 320 321 320 320 320 319 315 308 310 313 315 315 315 313 317 320 321 320 318 318 313 307 308 300 301 300 297 296 296
331 328 327 325 326 324 323 322 322 322 321 319 317 318 319 319 320 319 319 320 318 317 315 314 314 314 313 312 313 318 320 319 317 316 308 305 299 300 300 297 296 296 296
332 331 329 327 326 326 324 324 323 323 324 323 321 319 320 319 318 318 318 318 318 319 318 317 314 313 313 312 314 317 321 318 317 308 304 302 304 301 297 296 296 296 295
333 332 330 329 328 328 326 326 324 324 324 324 324 322 320 321 320 319 318 317 318 318 318 317 316 315 314 313 314 317 320 318 313 307 305 308 300 296 296 296 296 295 294
333 332 332 331 331 330 328 327 326 325 324 323 324 324 323 322 320 320 319 318 317 317 317 317 316 315 313 315 316 318 316 311 306 303 306 300 297 296 296 296 295 294 294
333 333 332 332 332 332 330 329 327 326 326 325 325 324 324 323 322 321 321 320 318 316 316 316 315 314 315 317 316 314 306 302 301 303 302 297 296 296 296 295 294 294 293
331 332 332 332 331 331 331 330 329 327 327 327 327 326 326 325 325 324 321 320 319 316 315 315 314 313 315 317 313 306 302 302 302 302 298 297 296 295 295 294 294 293 292
Wind_Speed
6 7 4 0 4 5 6 6 6 7 9 11 12 13 15 16 12 10 12 14 15 14 13 16 19 24 30 33 38 35 39 34 29 27 24 21 22 20 18 12 9 6 7
9 9 6 3 2 4 7 5 4 7 11 12 16 16 18 17 14 14 16 14 16 17 15 15 21 27 29 36 31 28 25 16 28 26 24 21 18 18 15 11 7 8 7
9 12 8 4 3 5 7 6 7 9 12 14 16 16 17 17 14 13 13 15 14 13 14 17 22 25 30 34 29 22 23 19 27 22 21 20 18 18 16 13 11 8 7
11 13 10 4 8 8 8 9 11 13 14 16 15 16 16 15 14 14 15 14 13 11 12 18 22 25 33 30 26 27 23 24 21 19 21 18 17 16 13 10 12 8 6
14 12 11 11 13 8 13 13 16 18 15 16 17 16 14 12 12 13 15 12 11 12 15 19 26 30 27 25 29 24 25 24 23 22 16 13 13 15 13 8 6 4 6
16 11 15 15 11 10 12 12 16 17 13 12 15 13 10 9 10 11 16 10 14 20 18 20 21 25 24 25 28 24 19 17 16 14 13 13 11 9 8 5 4 4 5
16 13 18 16 15 15 11 10 12 12 10 10 13 12 12 11 12 16 15 13 16 19 21 23 22 25 27 21 22 15 13 13 12 13 12 12 10 8 6 4 2 1 4
18 15 19 19 18 15 15 12 11 8 6 7 12 12 13 13 13 18 18 15 16 19 20 23 28 28 24 22 16 13 12 12 10 8 5 3 2 3 1 2 6 9 11
22 18 18 23 22 19 15 14 11 12 4 6 8 12 14 15 16 20 19 18 19 19 19 20 23 24 19 15 14 13 12 10 9 4 6 7 1 1 3 5 8 9 10
23 19 17 25 23 21 19 15 15 13 7 11 11 11 15 16 16 16 17 18 19 19 18 20 20 19 20 20 19 15 15 13 10 7 8 9 6 5 5 6 6 7 6
21 20 21 18 23 23 21 18 15 15 12 12 14 16 17 15 15 15 16 17 16 16 15 17 17 16 16 16 17 19 14 15 12 9 10 10 10 8 7 8 9 8 7
21 23 25 21 23 20 21 19 15 14 18 16 14 16 18 19 16 16 15 15 13 13 13 13 17 18 17 18 19 20 16 14 13 12 11 12 11 9 9 7 7 6 5
26 25 27 25 24 25 22 21 18 14 21 21 20 15 18 24 22 19 16 15 13 14 12 12 18 19 19 19 18 16 15 13 12 11 10 8 6 5 5 6 5 3 2
28 27 26 29 28 25 23 21 20 19 16 26 23 22 17 19 25 26 23 19 16 15 15 16 17 18 20 19 18 18 16 13 12 12 12 10 9 8 8 6 4 5 9
31 30 29 32 29 28 25 23 21 18 17 23 26 22 23 21 22 24 25 23 17 18 17 20 21 22 23 22 21 20 17 14 16 16 14 13 12 11 6 3 3 7 4
36 34 33 36 32 30 28 26 23 16 14 16 21 21 20 16 15 21 25 24 22 22 22 25 25 25 25 24 23 21 19 19 18 18 17 16 12 10 7 8 9 5 3
39 37 34 39 36 33 30 26 24 22 19 19 24 20 17 15 17 19 21 26 26 25 27 28 27 26 24 24 24 22 21 20 18 18 19 16 12 7 11 9 4 7 3
39 39 38 38 40 35 31 27 24 23 22 24 26 24 21 20 19 20 19 26 33 32 31 30 29 27 25 25 25 25 25 26 24 23 22 15 12 15 10 8 8 4 3
41 43 40 38 39 38 33 30 26 24 24 26 25 28 27 23 23 24 25 29 36 37 35 34 31 29 28 26 25 26 28 30 30 29 23 18 18 8 10 9 7 5 3
38 42 43 41 39 41 37 33 30 26 26 27 29 28 30 29 27 29 31 32 33 35 35 35 35 35 32 30 30 29 29 31 33 30 24 22 14 14 11 15 12 5 1
36 40 44 42 39 40 40 36 32 28 27 28 29 28 30 33 34 32 33 36 36 33 33 35 37 37 37 36 35 31 33 35 34 29 25 17 19 17 17 16 10 5 0
38 37 42 43 39 38 39 38 35 32 30 29 25 26 29 31 34 37 37 38 38 39 37 34 36 37 37 37 34 34 39 40 36 30 24 23 24 23 19 13 9 4 1
35 35 39 42 41 40 39 39 37 35 34 30 32 32 31 33 35 35 35 41 41 40 40 39 37 35 31 35 36 38 44 43 38 31 30 24 23 20 18 14 8 4 2
32 31 33 37 40 43 44 44 42 37 36 36 33 38 34 33 35 36 37 40 39 32 43 43 42 40 37 31 38 42 41 38 34 31 24 24 23 21 18 12 8 3 2
37 35 32 32 32 36 41 43 43 38 36 38 40 37 37 39 42 43 38 39 42 42 44 47 44 39 32 32 40 43 38 32 29 27 27 22 21 19 15 10 6 3 2
17 26 30 28 25 26 32 38 38 41 42 40 38 38 37 35 31 34 45 49 45 42 46 46 43 39 35 33 44 46 42 33 25 25 19 20 20 17 13 10 6 3 2
Wind_Direction
185 174 147 155 21 52 45 71 102 96 141 159 163 159 159 165 162 160 159 153 164 161 160 165 169 173 173 171 166 167 167 174 164 174 174 173 167 171 173 186 215 214 215
186 170 157 166 33 61 53 63 116 103 126 136 152 149 153 160 161 154 154 155 156 158 157 157 165 172 168 168 161 155 160 174 175 162 172 166 170 175 188 209 218 207 205
174 170 155 176 90 82 62 60 132 130 129 129 144 143 149 156 162 167 154 137 148 161 161 163 165 174 169 162 157 161 152 160 164 155 165 160 174 190 203 210 200 207 216
186 174 173 166 119 97 75 86 132 134 128 133 138 144 151 156 164 170 171 159 158 152 160 171 173 167 167 157 154 150 151 148 152 153 158 168 191 195 202 205 205 213 240
187 178 170 150 125 109 95 90 117 126 123 136 142 144 154 159 173 180 186 187 191 178 160 167 166 161 162 168 161 150 147 148 155 166 193 201 205 205 204 207 210 232 266
189 179 164 156 163 149 114 93 127 130 125 139 156 156 160 162 169 172 167 155 157 152 149 148 156 162 157 154 157 161 157 162 165 174 194 201 192 202 204 209 184 237 289
190 181 171 167 161 149 149 135 121 117 109 114 142 156 149 135 149 155 158 161 152 148 143 151 152 151 154 149 155 150 148 152 132 124 126 122 120 125 140 146 123 293 346
190 187 175 171 168 162 166 175 166 137 103 129 139 151 152 140 144 152 146 149 152 147 152 153 155 156 154 153 157 164 163 162 170 197 210 126 123 167 223 286 285 299 306
190 189 178 175 174 178 173 172 174 163 142 155 144 143 148 147 149 150 148 143 142 151 149 153 163 166 169 166 168 162 160 167 177 190 170 216 255 348 291 308 307 302 300
193 191 184 184 183 186 190 185 175 177 177 169 166 154 147 141 148 156 159 160 159 160 159 161 168 175 177 175 177 176 168 162 177 166 170 199 251 263 267 265 268 262 266
196 193 192 181 186 192 189 193 202 199 186 171 176 173 170 163 153 155 161 162 160 158 153 163 166 168 168 175 190 192 192 206 210 201 197 191 182 189 213 234 248 249 247
193 195 199 190 184 190 195 199 200 207 196 188 180 181 183 183 181 180 186 189 188 182 180 180 184 186 187 185 186 195 204 202 206 200 204 213 220 229 233 229 216 225 269
194 193 200 196 193 196 195 200 206 212 204 198 199 197 191 194 194 197 197 196 197 208 208 194 189 190 189 187 182 184 186 194 202 219 234 221 177 182 191 213 222 272 315
197 197 200 197 197 201 205 208 213 216 212 203 209 212 211 205 207 208 208 206 203 198 199 199 196 194 193 189 189 195 204 214 226 233 216 208 224 219 198 204 203 164 153
199 200 203 201 199 200 209 212 218 230 232 213 211 215 214 219 214 211 211 208 204 194 194 194 193 195 194 194 200 210 217 224 232 232 225 225 199 194 197 188 216 168 159
198 201 205 203 203 204 207 212 218 226 229 228 223 222 226 232 227 214 212 212 210 202 198 199 199 200 203 206 211 217 225 237 228 216 205 199 203 208 221 178 161 145 172
202 203 208 208 206 207 209 212 213 211 217 214 212 215 218 214 207 208 210 211 213 211 211 208 209 210 214 218 221 226 235 229 221 211 206 209 212 217 170 162 191 169 137
210 207 208 211 212 212 215 217 220 219 212 202 202 203 205 209 209 210 211 213 213 215 217 216 217 217 222 224 226 229 220 218 219 216 207 209 190 169 169 197 167 175 132
214 212 213 214 217 217 219 221 225 225 223 214 204 205 207 217 218 217 224 224 217 218 218 220 222 223 225 224 222 218 223 227 221 208 203 187 174 189 185 175 185 187 102
217 218 216 218 219 217 219 223 224 229 227 222 217 215 215 216 219 221 223 224 226 225 225 226 226 226 229 230 228 231 234 222 210 204 198 186 197 174 184 201 196 182 130
214 219 222 221 224 223 221 223 228 231 229 228 228 224 224 223 223 222 224 226 228 228 228 230 229 230 233 235 232 232 228 216 205 201 193 188 168 183 195 196 179 178 217
215 217 221 225 225 223 225 228 229 232 233 233 232 232 229 232 233 233 232 231 232 235 236 235 235 236 237 236 232 231 222 210 201 194 183 171 183 188 195 185 184 187 260
219 220 221 223 228 232 233 235 235 235 237 239 242 241 239 236 238 237 240 240 240 239 237 235 234 234 240 244 238 232 221 208 198 187 177 175 199 190 178 186 183 189 274
221 224 225 226 231 233 234 236 237 239 242 242 244 247 248 247 248 251 248 246 243 237 241 234 234 235 232 238 227 214 208 198 188 177 178 177 191 181 188 188 180 193 300
224 227 230 229 237 240 240 238 236 236 240 245 246 250 251 250 251 249 246 251 247 242 235 232 229 229 220 225 217 202 191 181 174 179 170 186 190 188 187 186 187 205 288
212 220 224 232 238 240 243 243 243 240 241 243 245 248 252 255 257 258 247 241 241 237 229 227 227 225 224 216 196 190 179 177 178 174 183 197 195 189 186 186 192 214 311